www.pogodaiklimat.ru

Архив погоды в Женеве (Швейцария)

Время
(UTC), дата
10 11.08
11 11.08
12 11.08
13 11.08
14 11.08
15 11.08
16 11.08
17 11.08
18 11.08
19 11.08
20 11.08
21 11.08
22 11.08
23 11.08
00 12.08
01 12.08
02 12.08
03 12.08
04 12.08
05 12.08
06 12.08
07 12.08
08 12.08
09 12.08
10 12.08
11 12.08
12 12.08
13 12.08
14 12.08
15 12.08
16 12.08
17 12.08
18 12.08
19 12.08
20 12.08
21 12.08
22 12.08
23 12.08
00 13.08
01 13.08
02 13.08
03 13.08
04 13.08
05 13.08
06 13.08
07 13.08
08 13.08
09 13.08
10 13.08
11 13.08
12 13.08
13 13.08
14 13.08
15 13.08
16 13.08
17 13.08
18 13.08
19 13.08
20 13.08
21 13.08
22 13.08
23 13.08
00 14.08
01 14.08
02 14.08
03 14.08
04 14.08
05 14.08
06 14.08
07 14.08
08 14.08
09 14.08
10 14.08
11 14.08
12 14.08
13 14.08
14 14.08
15 14.08
16 14.08
17 14.08
18 14.08
19 14.08
20 14.08
21 14.08
22 14.08
23 14.08
00 15.08
01 15.08
02 15.08
03 15.08
04 15.08
05 15.08
06 15.08
07 15.08
08 15.08
09 15.08
10 15.08
11 15.08
12 15.08
13 15.08
14 15.08
15 15.08
16 15.08
17 15.08
18 15.08
19 15.08
20 15.08
21 15.08
22 15.08
23 15.08
00 16.08
01 16.08
02 16.08
03 16.08
04 16.08
05 16.08
06 16.08
07 16.08
08 16.08
09 16.08
10 16.08
11 16.08
12 16.08
13 16.08
14 16.08
15 16.08
16 16.08
17 16.08
18 16.08
19 16.08
20 16.08
21 16.08
22 16.08
23 16.08
00 17.08
01 17.08
02 17.08
03 17.08
04 17.08
05 17.08
06 17.08
07 17.08
08 17.08
09 17.08
10 17.08
11 17.08
12 17.08
13 17.08
14 17.08
15 17.08
16 17.08
17 17.08
18 17.08
19 17.08
20 17.08
21 17.08
22 17.08
23 17.08
00 18.08
01 18.08
02 18.08
03 18.08
04 18.08
05 18.08
06 18.08
07 18.08
08 18.08
09 18.08
Ветер
(напр.,м/с)
Видим. Явления Облачность Т
(С)
Тd
(С)
f
(%)
Тe
(С)
Тes
(С)
Комфортность P
(гПа)
Po
(гПа)
Тmin
(С)
Tmax
(С)
R
(мм)
R24
(мм)
S
(см)
В 3
{6}
н/о н/о +25.9 +10.2 37 +27 +27 жарко 1016.8 970.5
В 3
{5}
н/о н/о +26.5 +10.3 36 +27 +27 жарко 1015.9 969.8
В 3
{6}
70 км 1/1 1500 м
[Cu hum]
+28.7 +10.8 33 +29 +42 жарко 1014.7 969.0
В 2
{5}
н/о н/о +31.1 +10.9 29 +31 +31 жарко 1013.6 968.3
В 4
{6}
н/о н/о +31.8 +11.3 28 +32 +32 жарко 1012.6 967.4
СВ 4
{6}
70 км 4/3 1500 м
[Cu med, cong Ci sp]
+32.4 +10.2 26 +32 +36 жарко 1011.9 966.9
СВ 3
{5}
н/о н/о +32.5 +9.8 25 +32 +32 жарко 1011.5 966.5
СВ 4
{7}
н/о н/о +30.2 +10.3 29 +30 +30 жарко 1011.5 966.1
С 2
{7}
70 км 4/3 1500 м
[Cu hum Ci sp]
+29.1 +9.7 30 +29 +29 жарко 1011.7 966.2 +32.9
С 2
{4}
н/о н/о +26.6 +9.8 35 +27 +27 жарко 1012.6 966.6
С 1
{3}
н/о н/о +24.0 +11.8 46 +26 +26 жарко 1013.6 967.2
С 2
{4}
70 км 1/0
[Ac trans]
+24.0 +11.6 46 +26 +26 жарко 1014.0 967.5
ЮЗ 1
{2}
н/о н/о +21.6 +11.9 54 +24 +24 комфорт 1014.8 967.9
ЮЗ 1
{2}
н/о н/о +20.6 +11.6 56 +24 +24 комфорт 1015.1 968.0
ЮЗ 2
{4}
н/о н/о +20.0 +12.1 60 +22 +22 комфорт 1015.5 968.3
СЗ 2
{3}
н/о н/о +19.6 +12.0 61 +22 +22 комфорт 1015.4 968.2
ЮЗ 1
{2}
н/о н/о +18.2 +12.0 67 +20 +20 тепло 1015.8 968.3
З 1
{3}
н/о н/о +16.8 +11.8 72 +18 +18 тепло 1015.7 968.0
З 1
{2}
н/о н/о +16.1 +11.2 73 +17 +17 по сезону 1015.7 967.9
З 1
{2}
н/о н/о +16.4 +11.5 73 +18 +18 по сезону 1015.6 967.8
З 1
{3}
70 км 1/0
[Ci fib]
+19.2 +12.0 63 +22 +24 комфорт 1015.4 968.1 +16.1
В 2
{4}
н/о н/о +22.5 +12.6 54 +25 +25 комфорт 1014.7 968.0
СВ 4
{7}
н/о н/о +24.0 +11.4 45 +25 +25 комфорт 1014.4 967.9
СВ 5
{9}
70 км 1/0
[Ci fib]
+24.9 +10.4 40 +26 +31 жарко 1014.0 967.7
СВ 4
{9}
н/о н/о +26.6 +11.2 38 +28 +28 жарко 1013.2 967.2
СВ 3
{7}
н/о н/о +28.2 +11.0 34 +29 +29 жарко 1012.3 966.6
СВ 3
{9}
70 км 1/1 2000 м
[Sc]
+29.2 +9.9 30 +29 +41 жарко 1011.5 966.0
СВ 4
{7}
н/о н/о +29.9 +10.4 30 +30 +30 жарко 1010.9 965.5
С 3
{7}
н/о н/о +30.9 +7.0 22 +29 +29 жарко 1010.2 965.0
СВ 5
{7}
70 км 1/1 2000 м
[Sc diur, vesp]
+31.4 +8.4 24 +30 +34 жарко 1009.8 964.7
СВ 5
{8}
н/о н/о +31.5 +9.3 25 +31 +31 жарко 1009.5 964.4
СВ 7
{9}
н/о н/о +30.3 +7.2 24 +29 +29 жарко 1009.6 964.3
СВ 5
{9}
70 км 1/1 2000 м
[Sc diur, vesp]
+28.9 +4.5 21 +27 +27 жарко 1009.9 964.4 +31.7
С 4
{8}
н/о н/о +26.6 +4.6 24 +26 +26 жарко 1010.7 964.8
С 4
{7}
н/о н/о +25.4 +4.6 26 +25 +25 комфорт 1011.4 965.3
С 4
{8}
60 км ясно +24.4 +4.6 28 +24 +24 комфорт 1011.9 965.6
С 2
{6}
н/о н/о +22.8 +5.2 32 +23 +23 комфорт 1012.3 965.7
СЗ 1
{4}
н/о н/о +19.6 +6.5 42 +22 +22 комфорт 1013.1 966.0
С 2
{8}
н/о н/о +19.0 +7.2 46 +20 +20 тепло 1013.1 965.9
З 1
{3}
н/о н/о +17.3 +7.7 53 +19 +19 тепло 1013.3 965.8
С 1
{2}
н/о н/о +16.4 +7.8 57 +18 +18 по сезону 1013.6 965.9
ЮЗ 1
{3}
н/о н/о +15.2 +7.8 61 +16 +16 по сезону 1013.9 966.0
СЗ 1
{2}
н/о н/о +14.5 +7.5 63 +16 +16 по сезону 1014.1 966.1
СЗ 1
{2}
н/о н/о +14.3 +7.3 63 +15 +15 по сезону 1014.3 966.2
СЗ 1
{3}
70 км ясно +18.0 +7.3 50 +20 +21 тепло 1013.7 966.3 +14.2
В 3
{4}
н/о н/о +20.8 +10.2 51 +23 +23 комфорт 1013.4 966.4
СВ 4
{7}
н/о н/о +22.6 +10.3 46 +24 +24 комфорт 1013.1 966.5
СВ 4
{7}
70 км ясно +23.6 +9.3 40 +24 +32 комфорт 1013.0 966.5
СВ 4
{7}
н/о н/о +24.9 +8.9 36 +25 +25 комфорт 1012.5 966.3
В 4
{8}
н/о н/о +26.5 +8.6 32 +27 +27 жарко 1011.9 965.9
В 3
{8}
70 км ясно +27.5 +6.3 26 +27 +41 жарко 1011.3 965.5
СВ 3
{6}
н/о н/о +29.0 +6.2 24 +28 +28 жарко 1010.6 965.1
В 3
{5}
н/о н/о +29.6 +5.5 22 +28 +28 жарко 1010.1 964.7
В 3
{6}
70 км ясно +30.9 +5.1 20 +29 +36 жарко 1009.5 964.3
СВ 3
{5}
н/о н/о +30.4 +4.3 19 +28 +28 жарко 1008.9 963.7
СВ 4
{6}
н/о н/о +30.2 +5.0 20 +28 +28 жарко 1008.6 963.4
СВ 3
{6}
70 км 3/0
[Cs]
+28.0 +6.5 26 +27 +27 жарко 1009.2 963.6 +31.0
С 2
{4}
н/о н/о +25.3 +6.7 30 +25 +25 комфорт 1009.6 963.6
З 1
{2}
н/о н/о +21.7 +7.5 40 +23 +23 комфорт 1010.9 964.2
ЮЗ 1
{4}
70 км 4/0
[Ci sp]
+21.0 +7.4 41 +24 +24 комфорт 1011.3 964.5
З 1
{2}
н/о н/о +18.9 +8.2 50 +21 +21 комфорт 1011.8 964.6
З 1
{2}
н/о н/о +17.6 +8.5 55 +19 +19 по сезону 1012.0 964.6
СЗ 1
{4}
н/о н/о +17.3 +8.7 57 +19 +19 тепло 1011.8 964.3
З 1
{2}
н/о н/о +16.2 +8.2 59 +18 +18 по сезону 1011.4 963.8
В 1
{2}
н/о н/о +16.5 +8.0 57 +18 +18 по сезону 1010.8 963.3
З 1
{2}
н/о н/о +15.4 +8.6 64 +17 +17 по сезону 1010.7 963.0
СЗ 1
{2}
н/о н/о +15.4 +8.5 63 +17 +17 по сезону 1010.5 962.8
ЮЗ 1
{2}
н/о н/о +15.2 +8.6 65 +17 +17 по сезону 1009.8 962.1
З 2
{3}
50 км осадки на расстоянии 9/0 2000 м
[Ac cast Ci ing]
+17.5 +9.3 59 +18 +19 тепло 1009.8 962.5 +15.2
З 2
{5}
н/о н/о +17.9 +9.7 59 +18 +18 тепло 1010.5 963.2
ЮЗ 3
{8}
н/о н/о +19.9 +8.7 48 +21 +21 комфорт 1011.1 964.1
Ю 5
{9}
12 км гроза, ливневой дождь 10/3 1200 м
[Cb cap]
+18.4 +15.6 84 +19 +21 по сезону 1011.9 964.6 0.6
З 3
{9}
н/о н/о +17.7 +16.1 90 +18 +18 прохладно 1012.2 964.8 0.8
З 3
{6}
н/о н/о +19.0 +17.0 88 +21 +21 комфорт 1011.8 964.6 0.3
З 3
{9}
25 км слаб. дождь {гроза, ливн. дождь} 10/5 360 м
[Cu med, cong Ac As]
+20.3 +16.8 80 +24 +26 комфорт 1010.5 963.6
З 3
{5}
н/о н/о +21.2 +16.5 75 +25 +25 комфорт 1009.4 962.7
З 3
{6}
н/о н/о +21.3 +16.1 72 +25 +25 комфорт 1009.0 962.3
ЮЗ 3
{6}
50 км 8/1 1500 м
[Cu med, cong Ac As]
+23.4 +16.1 64 +28 +31 душно 1008.3 962.0
Ю 4
{8}
н/о н/о +24.9 +15.3 55 +28 +28 жарко 1007.7 961.7
Ю 6
{8}
н/о н/о +23.8 +15.9 61 +27 +27 жарко 1007.7 961.5
Ю 6
{11}
6000 м ливневой дождь 9/3 600 м
[Cb cap Ac As]
+19.4 +17.1 87 +21 +21 комфорт 1009.2 962.2 +25.2 0.9
З 2
{8}
н/о н/о +19.0 +17.4 90 +21 +21 комфорт 1009.5 962.4 0.3
ЮЗ 1
{3}
н/о н/о +18.9 +17.3 90 +21 +21 комфорт 1010.1 963.0
штиль 0
{8}
20 км {ливн. дождь} 4/1 1500 м
[Sc diur, vesp Ac lent]
+18.1 +17.2 94 +18 +18 прохладно 1010.1 962.9
З 1
{3}
н/о н/о +18.0 +16.8 93 +19 +19 по сезону 1010.4 963.1
З 2
{4}
н/о н/о +17.7 +16.3 92 +18 +18 прохладно 1010.2 962.9
З 2
{8}
н/о н/о +17.3 +15.9 91 +18 +18 тепло 1009.9 962.5
СЗ 1
{3}
н/о н/о +16.5 +15.5 94 +18 +18 по сезону 1009.9 962.4
СЗ 2
{2}
н/о н/о +16.0 +15.0 94 +16 +16 по сезону 1009.9 962.3 0.1
СВ 1
{3}
н/о н/о +15.3 +14.5 95 +16 +16 по сезону 1010.0 962.3
СЗ 1
{2}
н/о н/о +15.1 +14.2 94 +16 +16 по сезону 1009.8 962.1
СЗ 1
{3}
н/о н/о +15.3 +14.3 94 +16 +16 по сезону 1009.7 962.0
ЮЗ 1
{3}
13 км дымка {ливн. дождь} 6/1 300 м
[St Ci sp]
+17.4 +15.4 88 +18 +20 тепло 1009.2 961.9 +14.8 3.0
ЮЗ 2
{3}
н/о н/о +18.3 +15.7 85 +20 +20 тепло 1009.1 961.9
З 2
{4}
н/о н/о +20.1 +16.2 78 +23 +23 комфорт 1008.6 961.8
ЮЗ 4
{6}
22 км 9/4 600 м
[Cu med, cong Ac inh Ci sp]
+21.1 +15.6 71 +24 +27 комфорт 1008.4 961.7
ЮЗ 4
{8}
н/о н/о +21.9 +15.3 66 +25 +25 комфорт 1008.2 961.7
Ю 7
{9}
н/о н/о +22.0 +14.4 62 +25 +25 комфорт 1008.1 961.6
ЮЗ 6
{9}
26 км 9/1 900 м
[Cu med, cong Ac As]
+23.5 +13.6 54 +26 +28 жарко 1007.8 961.5
ЮЗ 5
{11}
н/о н/о +22.9 +13.5 55 +26 +26 жарко 1008.1 961.7
Ю 5
{8}
н/о н/о +24.9 +13.7 50 +27 +27 жарко 1007.6 961.6
ЮЗ 5
{11}
40 км 8/3 1350 м
[Cu med, cong Ac inh Ci fib]
+25.9 +12.0 42 +27 +29 жарко 1006.9 961.1
ЮЗ 5
{9}
н/о н/о +26.6 +10.7 37 +27 +27 жарко 1006.7 961.0
ЮЗ 4
{8}
н/о н/о +26.0 +10.1 37 +27 +27 жарко 1006.6 960.8
З 2
{11}
40 км 6/1 1500 м
[Sc diur, vesp Ac lent Cs]
+24.1 +9.1 38 +25 +25 комфорт 1007.3 961.2 +26.8
СЗ 1
{4}
н/о н/о +20.3 +11.7 58 +23 +23 комфорт 1008.5 961.7
ЮВ 2
{4}
н/о н/о +22.1 +10.6 48 +24 +24 комфорт 1008.7 962.2
С 1
{4}
35 км 8/0
[Ac lent Cs]
+19.1 +11.2 60 +21 +21 комфорт 1009.6 962.5
СВ 1
{3}
н/о н/о +17.4 +11.7 69 +19 +19 по сезону 1010.2 962.8
С 1
{2}
н/о н/о +15.8 +11.7 77 +17 +17 прохладно 1010.9 963.2
СВ 1
{4}
н/о н/о +15.7 +11.8 78 +16 +16 по сезону 1010.8 963.1
В 1
{2}
н/о н/о +14.8 +12.0 83 +16 +16 по сезону 1010.9 963.1
СВ 1
{2}
н/о н/о +14.3 +12.1 87 +15 +15 по сезону 1010.7 962.8
штиль 0
{2}
н/о н/о +13.8 +11.6 87 +13 +13 по сезону 1010.8 962.8
ЮВ 1
{2}
н/о н/о +14.0 +11.8 87 +15 +15 по сезону 1010.8 962.8
С 1
{2}
н/о н/о +13.8 +11.6 87 +15 +15 по сезону 1010.9 962.9
С 1
{2}
40 км ясно +16.1 +13.0 82 +17 +19 тепло 1010.7 963.1 +13.1
1
{2}
н/о н/о +19.1 +13.1 68 +22 +22 комфорт 1010.3 963.2
СВ 1
{4}
н/о н/о +20.5 +12.5 60 +24 +24 комфорт 1010.3 963.4
В 2
{5}
35 км 1/1 1050 м
[Cu hum]
+22.9 +12.5 52 +26 +35 жарко 1010.0 963.5
В 2
{6}
н/о н/о +24.3 +11.8 46 +26 +26 жарко 1009.6 963.4
В 2
{5}
н/о н/о +26.3 +11.5 40 +28 +28 жарко 1009.0 963.1
ЮВ 2
{6}
40 км 1/1 1350 м
[Cu hum]
+27.5 +11.1 36 +28 +42 жарко 1008.3 962.7
Ю 3
{9}
н/о н/о +30.4 +10.1 28 +30 +30 жарко 1007.3 962.2
ЮЗ 3
{9}
н/о н/о +31.2 +9.3 26 +31 +31 жарко 1006.5 961.5
Ю 4
{9}
35 км 1/1 2000 м
[Cu med, cong]
+31.8 +8.3 23 +31 +35 жарко 1005.9 961.0
ЮЗ 3
{9}
н/о н/о +31.2 +8.1 24 +30 +30 жарко 1005.3 960.4
ЮЗ 3
{7}
н/о н/о +31.3 +8.8 25 +30 +30 жарко 1004.9 960.0
З 2
{9}
35 км 9/1
[Cu med, cong Ac As Cs]
+29.1 +9.9 30 +29 +29 жарко 1005.4 960.1 +32.2
С 2
{4}
н/о н/о +26.5 +11.8 40 +28 +28 жарко 1006.4 960.7
СВ 1
{2}
н/о н/о +26.1 +10.5 38 +27 +27 жарко 1006.9 961.1
З 2
{4}
35 км в посл. час гроза 9/1 2000 м
[Cu hum Ac cuf Ci ing]
+23.0 +12.9 53 +26 +26 жарко 1008.6 962.2
З 3
{11}
н/о н/о +23.9 +14.3 55 +26 +26 жарко 1008.9 962.7
ЮЗ 4
{6}
н/о н/о +24.5 +13.8 51 +27 +27 жарко 1008.9 962.8
Ю 5
{11}
н/о н/о +20.8 +17.1 79 +24 +24 комфорт 1009.8 963.0 0.3
З 3
{8}
н/о н/о +20.6 +16.7 78 +24 +24 комфорт 1010.0 963.2
Ю 2
{6}
н/о н/о +19.9 +17.2 84 +23 +23 комфорт 1010.3 963.3 2
С 2
{8}
н/о н/о +18.8 +17.2 90 +21 +21 комфорт 1010.1 963.0 0.2
СВ 2
{3}
н/о н/о +17.9 +16.4 91 +19 +19 тепло 1010.0 962.7
СЗ 2
{3}
н/о н/о +17.9 +16.5 92 +19 +19 тепло 1010.5 963.2
З 2
{8}
35 км {гроза, ливн. дождь} 5/0
[Ac As Ci fib]
+19.3 +17.6 90 +22 +23 комфорт 1011.4 964.3 +17.4 2.2
Ю 1
{3}
н/о н/о +20.6 +17.9 85 +25 +25 комфорт 1011.1 964.2
С 1
{4}
н/о н/о +22.4 +17.9 76 +27 +27 душно 1010.9 964.3
СВ 2
{4}
30 км 5/1 1050 м
[Cu hum Ac trans Ci]
+24.7 +17.0 62 +28 +36 душно 1010.5 964.3
В 4
{6}
н/о н/о +25.2 +16.8 60 +29 +29 душно 1010.3 964.2
СВ 3
{6}
н/о н/о +25.4 +14.5 51 +28 +28 жарко 1009.5 963.5
В 3
{6}
30 км 6/1 1350 м
[Cu med, cong Ac As Ci sp]
+28.2 +15.3 45 +31 +39 душно 1008.5 963.0
В 3
{6}
н/о н/о +27.6 +13.9 43 +30 +30 жарко 1007.7 962.1
СВ 3
{6}
н/о н/о +27.7 +12.6 39 +29 +29 жарко 1007.4 961.8
СВ 4
{6}
25 км осадки на расстоянии 9/3 1500 м
[Cb cap Ac As Ci ing]
+27.3 +12.8 41 +29 +31 жарко 1007.1 961.5
З 3
{9}
н/о н/о +23.6 +15.3 60 +27 +27 жарко 1008.3 962.0
ЮВ 3
{22}
н/о н/о +18.5 +16.5 88 +19 +19 по сезону 1012.0 964.7 10
В 2
{22}
40 км слаб. дождь {гроза} 10/5 450 м
[Cu Sc Ac As]
+18.1 +16.0 88 +19 +19 по сезону 1013.5 966.1 +28.2 0.1
ЮВ 2
{6}
н/о н/о +18.3 +16.0 86 +20 +20 по сезону 1014.2 966.8
С 3
{4}
н/о н/о +17.9 +16.7 93 +18 +18 прохладно 1014.6 967.1 0.1
В 1
{6}
40 км в посл. час дождь 10/1 600 м
[Sc Ac As]
+18.0 +16.3 90 +19 +19 тепло 1014.5 967.0
СЗ 2
{4}
н/о н/о +17.8 +15.9 89 +19 +19 тепло 1014.3 966.8
З 2
{3}
н/о н/о +17.4 +15.6 89 +18 +18 тепло 1014.7 967.1
ЮЗ 2
{6}
н/о н/о +17.5 +16.4 93 +18 +18 тепло 1014.3 966.8 0.1
С 2
{3}
н/о н/о +17.6 +16.6 94 +18 +18 тепло 1013.6 966.1 0.1
ЮЗ 1
{4}
н/о н/о +17.1 +15.7 91 +19 +19 тепло 1012.9 965.4
Ю 1
{4}
н/о н/о +17.5 +16.1 91 +19 +19 тепло 1012.5 965.0
С 2
{3}
н/о н/о +16.8 +15.6 93 +17 +17 тепло 1012.6 965.0
З 1
{2}
н/о н/о +16.4 +15.3 93 +17 +17 тепло 1013.4 965.7
СВ 2
{4}
50 км {дождь} 6/4 300 м
[Cu Sc Ac lent Ci sp]
+17.6 +15.8 89 +18 +19 тепло 1012.5 965.1 +16.3 10.3
В 1
{3}
н/о н/о +18.2 +15.7 85 +20 +20 тепло 1012.9 965.5
С 1
{4}
н/о н/о +19.5 +16.2 81 +23 +23 комфорт 1011.6 964.5
В 4
{6}
60 км 3/1 900 м
[Cu med, cong Ac lent Ci sp]
+20.9 +15.3 70 +24 +30 комфорт 1011.6 964.7
Местоположение метеостанции Женева (Швейцария): широта 46.25 долгота 6.13 высота над уровнем моря 416 м.
В архиве по умолчанию представлена погода в Женеве за последнюю неделю. Архивные данные за месяц целиком и за предыдущие месяцы, начиная с января 2011 года, Вы можете получить, выбрав интересующий диапазон дат из раскрывающегося списка и нажав кнопку "Найти!".
*Определитесь, кто Вы:
Внимание! Время в таблицах - всемирное. Для получения местного времени необходимо прибавить поправку, которая равна 1 ч.
Смотрите также архив погоды в соседних городах и на ближайших метеорологических станциях:
Партнеры нашего сайта:      
Пояснения к столбцам:
  • Ветер - указаны скорость ветра в м/с - средняя за 10 мин, порывы в срок и между сроками (в фигурных скобках) и направление, откуда дует ветер: С - северный,
  • СВ - северо-восточный, В - восточный, ЮВ - юго-восточный, Ю - южный, ЮЗ - юго-западный, З - западный, СЗ - северо-западный.
  • Видимость - горизонтальная дальность видимости в метрах или километрах. При видимости от 1 до 10 км при отсутствии осадков обычно наблюдается дымка, при ухудшении видимости до 1 км и менее - туман. В сухую погоду видимость может ухудшаться дымом, пылью или мглою.
  • Явления - указаны атмосферные явления, наблюдавшиеся в срок или в последний час перед сроком; фигурными скобками обозначены явления, наблюдавшиеся между сроками (за 1-3 часа до срока); квадратными скобками обозначены град или гололедные отложения с указанием их диаметра в мм.
  • Облачность - указаны через наклонную черту общая и нижняя облачность в баллах и высота нижней границы облаков в метрах; квадратными скобками обозначены формы облаков: Ci - перистые, Cs - перисто-слоистые, Cc - перисто-кучевые, Ac - высококучевые, As - высокослоистые, Sc - слоисто-кучевые, Ns - слоисто-дождевые, Cu - кучевые, Cb - кучево-дождевые. Подробнее классификацию облаков см. в Атласе облаков (PDF).
  • T - Температура воздуха - температура, измеренная на высоте 2 м над землей.
  • Td - Температура точки росы - температура, при понижении до которой содержащийся в воздухе водяной пар достигнет насыщения.
  • f - Относительная влажность воздуха - влажноcть воздуха, измеренная на высоте 2 м над землей.
  • Te - Эффективная температура - температура, которую ощущает одетый по сезону человек в тени. Характеристика душности погоды. При расчете учитывается влияние влажности воздуха и скорости ветра на теплоощущения человека.
  • Tes - Эффективная температура на солнце - температура, которую ощущает человек, с поправкой на солнечный нагрев. Характеристика знойности погоды. Зависит от высоты солнца над горизонтом, облачности и скорости ветра. Ночью, в пасмурную погоду, а также при ветре 12 м/с и более поправка равна нулю.
  • P - Атмосферное давление - приведенное к уровню моря атмосферное давление.
  • Po - Атмосферное давление - измеренное на уровне метеостанции атмосферное давление.
  • Tmin - Минимальная температура - минимум температуры воздуха на высоте 2 м над землей.
  • Tmax - Максимальная температура - максимум температуры воздуха на высоте 2 м над землей.
  • R - Количество осадков - Количество выпавших осадков за период времени, мм. При наведении курсора мыши на число - период времени, за который выпало указанное количество осадков.
  • R24 - Количество осадков - Количество выпавших осадков за 24 часа, мм.
  • S - Снежный покров - Высота снежного покрова, см. При наведении курсора мыши на число - состояние снежного покрова и степень покрытия местности в баллах.